KC8YVF-1 Weather Reports


Display with metric or nautical units.
time (UTC)temp
F
wind
direction
speed
MPH
gust
MPH
rain 1hr
in
rain 24hr
in
rain mn
in
humidity
%
barometer
mb
20260508151008 53 248 0.0 0.0 0.00 0.00 0.00 55 997.6
20260508150507 53 158 0.0 0.0 0.00 0.00 0.00 56 997.6
20260508150007 53 180 0.0 0.0 0.00 0.00 0.00 56 997.6
20260508145506 53 248 0.0 0.0 0.00 0.00 0.00 57 997.6
20260508145007 52 180 0.0 0.0 0.00 0.00 0.00 57 997.6
20260508144014 52 180 0.0 0.0 0.00 0.00 0.00 59 997.8
20260508143508 51 248 0.0 0.0 0.00 0.00 0.00 60 997.7
20260508143006 51 248 0.0 0.0 0.00 0.00 0.00 61 997.9
20260508142514 51 225 0.0 0.0 0.00 0.00 0.00 60 997.9
20260508141508 51 248 0.0 0.0 0.00 0.00 0.00 61 997.9
20260508140848 50 225 0.0 0.0 0.00 0.00 0.00 62 998.0
20260508135508 50 158 0.0 0.0 0.00 0.00 0.00 64 997.9
20260508135349 50 248 0.0 0.0 0.00 0.00 0.00 64 997.9
20260508135007 50 180 0.0 0.0 0.00 0.00 0.00 64 997.9
20260508134506 50 158 0.0 0.0 0.00 0.00 0.00 64 997.9
20260508134007 50 203 0.0 0.0 0.00 0.00 0.00 65 998.3
20260508133849 50 203 0.0 0.0 0.00 0.00 0.00 65 998.2
20260508133507 50 158 0.0 0.0 0.00 0.00 0.00 65 998.2
20260508133006 50 248 0.0 0.0 0.00 0.00 0.00 66 998.0
20260508132507 50 203 0.0 0.0 0.00 0.00 0.00 66 997.9
20260508132348 50 203 0.0 0.0 0.00 0.00 0.00 66 998.1
20260508132007 50 225 0.0 0.0 0.00 0.00 0.00 66 998.0
20260508131507 50 225 0.0 0.0 0.00 0.00 0.00 68 998.0
20260508131007 50 270 0.0 0.0 0.00 0.00 0.00 68 998.3
20260508130848 49 248 0.0 0.0 0.00 0.00 0.00 68 998.3
20260508130506 49 203 0.0 0.0 0.00 0.00 0.00 69 998.3
20260508130007 49 225 0.0 0.0 0.00 0.00 0.00 70 998.3
20260508125506 48 203 0.0 0.0 0.00 0.00 0.00 71 998.3
20260508125349 48 180 0.0 0.0 0.00 0.00 0.00 72 998.3
20260508124506 47 180 0.0 0.0 0.00 0.00 0.00 74 998.3
20260508124006 47 180 0.0 0.0 0.00 0.00 0.00 75 998.1
20260508123849 47 248 0.0 0.0 0.00 0.00 0.00 76 997.9
20260508123508 46 248 0.0 0.0 0.00 0.00 0.00 76 997.9
20260508123006 46 203 0.0 0.0 0.00 0.00 0.00 77 998.2
20260508122349 45 180 0.0 0.0 0.00 0.00 0.00 78 998.2
20260508121007 43 248 0.0 0.0 0.00 0.00 0.00 81 997.9
20260508120849 43 248 0.0 0.0 0.00 0.00 0.00 82 997.9
20260508120508 42 248 0.0 0.0 0.00 0.00 0.00 82 997.9
20260508120007 41 293 0.0 0.0 0.00 0.00 0.00 83 997.9
20260508115507 40 293 0.0 0.0 0.00 0.00 0.00 83 997.9
20260508115348 39 293 0.0 0.0 0.00 0.00 0.00 84 997.9
20260508115007 38 293 0.0 0.0 0.00 0.00 0.00 83 997.9
20260508114506 38 293 0.0 0.0 0.00 0.00 0.00 83 997.9
20260508114006 36 293 0.0 0.0 0.00 0.00 0.00 82 997.8
20260508113850 36 293 0.0 0.0 0.00 0.00 0.00 82 997.8
20260508113507 36 293 0.0 0.0 0.00 0.00 0.00 81 997.6
20260508112507 34 293 0.0 0.0 0.00 0.00 0.00 80 997.6
20260508112350 34 293 0.0 0.0 0.00 0.00 0.00 80 997.6
20260508112007 34 293 0.0 0.0 0.00 0.00 0.00 80 997.6
20260508111507 34 293 0.0 0.0 0.00 0.00 0.00 80 997.6
20260508111007 34 293 0.0 0.0 0.00 0.00 0.00 80 997.6
20260508110850 34 293 0.0 0.0 0.00 0.00 0.00 80 997.6
20260508105349 34 293 0.0 0.0 0.00 0.00 0.00 79 997.6
20260508105006 34 293 0.0 0.0 0.00 0.00 0.00 79 997.6
20260508104508 34 293 0.0 0.0 0.00 0.00 0.00 79 997.6
20260508104008 34 293 0.0 0.0 0.00 0.00 0.00 79 997.6
20260508103848 34 293 0.0 0.0 0.00 0.00 0.00 79 997.8
20260508103507 34 293 0.0 0.0 0.00 0.00 0.00 78 997.9
20260508102506 34 293 0.0 0.0 0.00 0.00 0.00 78 997.6
20260508102349 34 293 0.0 0.0 0.00 0.00 0.00 78 997.6
20260508101507 34 293 0.0 0.0 0.00 0.00 0.00 78 997.6
20260508101006 34 293 0.0 0.0 0.00 0.00 0.00 78 997.9
20260508100850 34 293 0.0 0.0 0.00 0.00 0.00 78 997.8
20260508100007 35 293 0.0 0.0 0.00 0.00 0.00 77 997.6
20260508095508 35 293 0.0 0.0 0.00 0.00 0.00 77 997.7
20260508095350 35 293 0.0 0.0 0.00 0.00 0.00 77 997.7
20260508094507 35 293 0.0 0.0 0.00 0.00 0.00 77 997.8
20260508093849 35 293 0.0 0.0 0.00 0.00 0.00 77 997.9
20260508093506 35 293 0.0 0.0 0.00 0.00 0.00 77 997.9
20260508093007 36 293 0.0 0.0 0.00 0.00 0.00 77 997.9
20260508092507 36 293 0.0 0.0 0.00 0.00 0.00 77 997.8
20260508092349 36 293 0.0 0.0 0.00 0.00 0.00 76 997.8
20260508092008 36 293 0.0 0.0 0.00 0.00 0.00 76 997.9
20260508091507 36 293 0.0 0.0 0.00 0.00 0.00 76 997.9
20260508090850 36 293 0.0 0.0 0.00 0.00 0.00 76 997.9
20260508090507 36 293 0.0 0.0 0.00 0.00 0.00 76 997.9
20260508090007 37 293 0.0 0.0 0.00 0.00 0.00 76 997.9
20260508085507 37 293 0.0 0.0 0.00 0.00 0.00 76 997.9
20260508085348 37 293 0.0 0.0 0.00 0.00 0.00 76 997.9
20260508084507 37 293 0.0 0.0 0.00 0.00 0.00 76 997.9
20260508084006 37 293 0.0 0.0 0.00 0.00 0.00 75 997.9
20260508083849 37 293 0.0 0.0 0.00 0.00 0.00 75 997.9
20260508083508 37 293 0.0 0.0 0.00 0.00 0.00 75 997.9
20260508082506 38 293 0.0 0.0 0.00 0.00 0.00 75 997.9
20260508082349 38 293 0.0 0.0 0.00 0.00 0.00 75 997.9
20260508082007 38 293 0.0 0.0 0.00 0.00 0.00 74 997.9
20260508081507 38 293 0.0 0.0 0.00 0.00 0.00 74 997.8
20260508081008 38 293 0.0 0.0 0.00 0.00 0.00 74 997.9
20260508080849 39 293 0.0 0.0 0.00 0.00 0.00 74 997.9
20260508080506 39 293 0.0 0.0 0.00 0.00 0.00 74 997.9
20260508075507 39 293 0.0 0.0 0.00 0.00 0.00 74 997.9
20260508075349 39 293 0.0 0.0 0.00 0.00 0.00 74 997.9
20260508075008 39 293 0.0 0.0 0.00 0.00 0.00 73 997.9
20260508074007 40 293 0.0 0.0 0.00 0.00 0.00 73 997.9
20260508073850 40 293 0.0 0.0 0.00 0.00 0.00 73 997.9
20260508073506 40 293 0.0 0.0 0.00 0.00 0.00 73 997.9
20260508072508 41 293 0.0 0.0 0.00 0.00 0.00 73 997.9
20260508072349 41 293 0.0 0.0 0.00 0.00 0.00 73 997.9
20260508072007 41 293 0.0 0.0 0.00 0.00 0.00 73 997.9
20260508071507 42 293 0.0 0.0 0.00 0.00 0.00 73 998.2
20260508071007 42 293 0.0 0.0 0.00 0.00 0.00 73 997.9
20260508070849 42 293 0.0 0.0 0.00 0.00 0.00 73 998.0
20260508070007 42 293 0.0 0.0 0.00 0.00 0.00 73 998.3
20260508065507 43 293 0.0 0.0 0.00 0.00 0.00 73 998.1
20260508065350 43 293 0.0 0.0 0.00 0.00 0.00 72 998.2
20260508065008 43 293 0.0 0.0 0.00 0.00 0.00 72 998.2
20260508064008 43 293 0.0 0.0 0.00 0.00 0.00 71 998.2
20260508063849 43 293 0.0 0.0 0.00 0.00 0.00 71 998.1
20260508063007 44 293 0.0 0.0 0.00 0.00 0.00 70 998.3
20260508062506 44 293 0.0 0.0 0.00 0.00 0.00 70 998.3
20260508062349 44 293 0.0 0.0 0.00 0.00 0.00 70 998.3
20260508062006 44 293 0.0 0.0 0.00 0.00 0.00 70 998.3
20260508061507 44 293 0.0 0.0 0.00 0.00 0.00 70 998.3
20260508060849 44 293 0.0 0.0 0.00 0.00 0.00 69 998.3
20260508060508 44 293 0.0 0.0 0.00 0.00 0.00 69 997.9
20260508055349 44 293 0.0 0.0 0.00 0.00 0.00 69 997.9
20260508055008 44 293 0.0 0.0 0.00 0.00 0.00 69 997.9
20260508054507 45 293 0.0 0.0 0.00 0.00 0.00 69 997.9
20260508053848 45 293 0.0 0.0 0.00 0.00 0.00 68 997.9
20260508053008 45 293 0.0 0.0 0.00 0.00 0.00 68 997.9
20260508052507 45 293 0.0 0.0 0.00 0.00 0.00 68 997.9
20260508052349 45 293 0.0 0.0 0.00 0.00 0.00 68 997.9
20260508052007 45 293 0.0 0.0 0.00 0.00 0.00 68 997.9
20260508050849 45 293 0.0 0.0 0.00 0.00 0.00 67 998.3
20260508050508 45 293 0.0 0.0 0.00 0.00 0.00 67 998.2
20260508050008 45 293 0.0 0.0 0.00 0.00 0.00 67 998.3
20260508045508 45 293 0.0 0.0 0.00 0.00 0.00 66 998.1
20260508045348 45 293 0.0 0.0 0.00 0.00 0.00 66 998.3
20260508045008 46 293 0.0 0.0 0.00 0.00 0.00 66 998.1
20260508044007 46 293 0.0 0.0 0.00 0.00 0.00 66 998.3
20260508043850 46 293 0.0 0.0 0.00 0.00 0.00 67 998.3
20260508043507 46 293 0.0 0.0 0.00 0.00 0.00 67 998.1
20260508042350 46 270 0.0 0.0 0.00 0.00 0.00 66 998.2
20260508042007 46 270 0.0 0.0 0.00 0.00 0.00 65 998.1
20260508041009 46 270 0.0 0.0 0.00 0.00 0.00 64 998.3
20260508040849 46 270 0.0 0.0 0.00 0.00 0.00 64 998.3
20260508040507 46 270 0.0 0.0 0.00 0.00 0.00 64 998.3
20260508040008 46 270 0.0 0.0 0.00 0.00 0.00 64 998.3
20260508035350 46 270 0.0 0.0 0.00 0.00 0.00 64 998.0
20260508035006 46 270 0.0 0.0 0.00 0.00 0.00 63 997.9
20260508034506 46 270 0.0 0.0 0.00 0.00 0.00 63 998.3
20260508033850 47 270 0.0 0.0 0.00 0.00 0.00 63 997.9
20260508033506 47 270 0.0 0.0 0.00 0.00 0.00 63 998.1
20260508033007 47 270 0.0 0.0 0.00 0.00 0.00 62 998.2
20260508032508 47 270 0.0 0.0 0.00 0.00 0.00 62 998.0
20260508032349 47 270 0.0 0.0 0.00 0.00 0.00 62 998.0
20260508031507 47 270 0.0 0.0 0.00 0.00 0.00 62 998.2
20260508031008 47 270 0.0 0.0 0.00 0.00 0.00 62 997.9
20260508030849 47 270 0.0 0.0 0.00 0.00 0.00 62 997.9
20260508030007 47 270 0.0 0.0 0.00 0.00 0.00 61 998.3
20260508025506 47 270 0.0 0.0 0.00 0.00 0.00 60 998.2
20260508025349 47 270 0.0 0.0 0.00 0.00 0.00 60 998.2
20260508025008 47 270 0.0 0.0 0.00 0.00 0.00 60 997.9
20260508024507 47 270 0.0 0.0 0.00 0.00 0.00 60 998.3
20260508024008 47 270 0.0 0.0 0.00 0.00 0.00 59 998.3
20260508023849 47 270 0.0 0.0 0.00 0.00 0.00 59 998.1
20260508022349 47 270 0.0 0.0 0.00 0.00 0.00 59 997.9
20260508022007 47 270 0.0 0.0 0.00 0.00 0.00 59 997.9
20260508021507 47 270 0.0 0.0 0.00 0.00 0.00 59 997.9
20260508021007 47 270 0.0 0.0 0.00 0.00 0.00 59 997.9
20260508020850 47 270 0.0 0.0 0.00 0.00 0.00 59 997.9
20260508020508 47 270 0.0 0.0 0.00 0.00 0.00 59 997.9
20260508020007 47 270 0.0 0.0 0.00 0.00 0.00 59 997.8
20260508015507 47 293 0.0 0.0 0.00 0.00 0.00 59 997.6
20260508015350 47 315 0.0 0.0 0.00 0.00 0.00 59 997.6
20260508015006 47 338 0.0 0.0 0.00 0.00 0.00 59 997.6
20260508014508 47 293 0.0 0.0 0.00 0.00 0.00 59 997.6
20260508013849 47 293 0.0 0.0 0.00 0.00 0.00 59 997.6
20260508013508 47 338 0.0 0.0 0.00 0.00 0.00 58 997.6
20260508013008 47 293 0.0 0.0 0.00 0.00 0.00 58 997.6
20260508012350 47 0 0.0 0.0 0.00 0.00 0.00 57 997.6
20260508012006 47 338 0.0 0.0 0.00 0.00 0.00 57 997.6
20260508011507 47 293 0.0 0.0 0.00 0.00 0.00 56 997.8
20260508010849 47 293 0.0 0.0 0.00 0.00 0.00 56 997.6
20260508010508 47 270 0.0 0.0 0.00 0.00 0.00 56 997.6
20260508005507 47 248 0.0 0.0 0.00 0.00 0.00 56 997.6
20260508005348 47 338 0.0 0.0 0.00 0.00 0.00 56 997.6
20260508005008 48 338 0.0 0.0 0.00 0.00 0.00 56 997.6
20260508004007 48 270 0.0 0.0 0.00 0.00 0.00 55 997.6
20260508003848 48 270 0.0 0.0 0.00 0.00 0.00 55 997.8
20260508003008 49 270 0.0 0.0 0.00 0.00 0.00 54 997.7
20260508002508 49 315 0.0 0.0 0.00 0.00 0.00 53 997.9
20260508002349 49 315 0.0 0.0 0.00 0.00 0.00 52 997.9
20260508002008 49 315 0.0 0.0 0.00 0.00 0.00 52 997.9
20260508001507 49 315 0.0 0.0 0.00 0.00 0.00 51 997.6
20260508000850 50 315 0.0 0.0 0.00 0.00 0.00 51 997.6
20260508000507 50 315 0.0 0.0 0.00 0.00 0.00 51 997.6
20260508000008 50 315 0.0 0.0 0.00 0.00 0.00 49 997.6
20260507235508 50 315 0.0 0.0 0.00 0.00 0.00 48 997.6
20260507235349 50 315 0.0 0.0 0.00 0.00 0.00 48 997.6
20260507235006 51 270 0.0 0.0 0.00 0.00 0.00 48 997.6
20260507233849 51 315 0.0 0.0 0.00 0.00 0.00 48 997.6
20260507233008 51 270 0.0 0.0 0.00 0.00 0.00 48 997.6
20260507232507 51 270 0.0 0.0 0.00 0.00 0.00 47 997.6
20260507232348 51 293 0.0 0.0 0.00 0.00 0.00 47 997.6
20260507232008 52 248 0.0 0.0 0.00 0.00 0.00 47 997.6
20260507231507 52 270 0.0 0.0 0.00 0.00 0.00 47 997.6
20260507231009 52 315 0.0 0.0 0.00 0.00 0.00 47 997.6
20260507230848 52 293 0.0 0.0 0.00 0.00 0.00 47 997.6
20260507230507 52 225 0.0 0.0 0.00 0.00 0.00 47 997.6
20260507225348 53 293 0.0 0.0 0.00 0.00 0.00 47 997.6
20260507224507 52 293 0.0 0.0 0.00 0.00 0.00 46 997.6
20260507224007 52 270 0.0 0.0 0.00 0.00 0.00 46 997.6
20260507223850 52 248 0.0 0.0 0.00 0.00 0.00 46 997.6
20260507223007 52 293 0.0 0.0 0.00 0.00 0.00 46 997.6
20260507222507 53 315 0.0 0.0 0.00 0.00 0.00 46 997.4
20260507222348 53 315 0.0 0.0 0.00 0.00 0.00 46 997.2
20260507222008 53 248 0.0 0.0 0.00 0.00 0.00 46 997.2
20260507221007 53 225 0.0 0.0 0.00 0.00 0.00 46 997.2
20260507220850 53 293 0.0 0.0 0.00 0.00 0.00 46 997.2
20260507220508 53 270 0.0 0.0 0.00 0.00 0.00 46 997.2
20260507220007 53 203 0.0 0.0 0.00 0.00 0.00 46 997.2
20260507215507 53 270 0.0 0.0 0.00 0.00 0.00 47 997.2
20260507215349 53 270 0.0 0.0 0.00 0.00 0.00 46 997.2
20260507215007 53 270 0.0 0.0 0.00 0.00 0.00 46 997.2
20260507214507 53 293 0.0 0.0 0.00 0.00 0.00 46 997.2
20260507213850 53 225 0.0 0.0 0.00 0.00 0.00 46 997.2
20260507213006 53 248 0.0 0.0 0.00 0.00 0.00 46 997.2
20260507212349 53 270 0.0 0.0 0.00 0.00 0.00 46 997.2
20260507212008 53 293 0.0 0.0 0.00 0.00 0.00 46 997.2
20260507210850 54 270 0.0 0.0 0.00 0.00 0.00 45 997.2
20260507210507 54 293 0.0 0.0 0.00 0.00 0.00 45 997.2
20260507205508 54 270 0.0 0.0 0.00 0.00 0.00 46 997.2
20260507205349 54 293 0.0 0.0 0.00 0.00 0.00 46 997.2
20260507205007 54 270 0.0 0.0 0.00 0.00 0.00 46 997.2
20260507204506 54 293 0.0 0.0 0.00 0.00 0.00 45 997.2
20260507204008 54 270 0.0 0.0 0.00 0.00 0.00 44 997.4
20260507203849 54 270 0.0 0.0 0.00 0.00 0.00 44 997.3
20260507203507 55 270 0.0 0.0 0.00 0.00 0.00 44 997.2
20260507202507 56 270 0.0 0.0 0.00 0.00 0.00 45 997.6
20260507202350 56 270 0.0 0.0 0.00 0.00 0.00 45 997.6
20260507202007 57 270 0.0 0.0 0.00 0.00 0.00 45 997.6
20260507200849 58 293 0.0 0.0 0.00 0.00 0.00 45 997.6
20260507200508 58 203 0.0 0.0 0.00 0.00 0.00 46 997.6
20260507200006 57 293 0.0 0.0 0.00 0.00 0.00 47 997.8
20260507195508 57 248 0.0 0.0 0.00 0.00 0.00 47 997.6
20260507195349 56 248 0.0 0.0 0.00 0.00 0.00 46 997.9
20260507194506 56 248 0.0 0.0 0.00 0.00 0.00 47 997.9
20260507194007 55 315 0.0 0.0 0.00 0.00 0.00 48 997.9
20260507193850 55 270 0.0 0.0 0.00 0.00 0.00 47 997.9
20260507193507 55 293 0.0 0.0 0.00 0.00 0.00 48 997.9
20260507192506 54 270 0.0 0.0 0.00 0.00 0.00 50 998.2
20260507192350 54 270 0.0 0.0 0.00 0.00 0.00 50 998.2
20260507191507 54 293 0.0 0.0 0.00 0.00 0.00 51 998.3
20260507191008 53 270 0.0 0.0 0.00 0.00 0.00 51 998.3
20260507190849 53 270 0.0 0.0 0.00 0.00 0.00 51 998.3
20260507190507 53 315 0.0 0.0 0.00 0.00 0.00 50 998.3
20260507190007 53 248 0.0 0.0 0.00 0.00 0.00 52 998.3
20260507185507 52 293 0.0 0.0 0.00 0.00 0.00 53 998.3
20260507185350 52 315 0.0 0.0 0.00 0.00 0.00 52 998.3
20260507184508 52 293 0.0 0.0 0.00 0.00 0.00 52 998.3
20260507184008 53 315 0.0 0.0 0.00 0.00 0.00 52 998.3
20260507183849 53 315 0.0 0.0 0.00 0.00 0.00 53 998.3
20260507183507 53 315 0.0 0.0 0.00 0.00 0.00 53 998.3
20260507183006 53 270 0.0 0.0 0.00 0.00 0.00 54 998.3
20260507182508 52 315 0.0 0.0 0.00 0.00 0.00 53 998.3
20260507182349 52 315 0.0 0.0 0.00 0.00 0.00 53 998.3
20260507181508 52 270 0.0 0.0 0.00 0.00 0.00 54 998.3
20260507181008 51 225 0.0 0.0 0.00 0.00 0.00 54 998.3
20260507180849 50 248 0.0 0.0 0.00 0.00 0.00 54 998.5
20260507180508 50 293 0.0 0.0 0.00 0.00 0.00 54 998.6
20260507180007 50 270 0.0 0.0 0.00 0.00 0.00 54 998.6
20260507175350 49 270 0.0 0.0 0.00 0.00 0.00 54 998.7
20260507175007 49 270 0.0 0.0 0.00 0.00 0.00 54 998.9
20260507174508 49 315 0.0 0.0 0.00 0.00 0.00 54 998.9
20260507174007 50 293 0.0 0.0 0.00 0.00 0.00 54 998.9
20260507173850 50 270 0.0 0.0 0.00 0.00 0.00 54 998.9
20260507173508 50 270 0.0 0.0 0.00 0.00 0.00 54 999.0
20260507173008 50 270 0.0 0.0 0.00 0.00 0.00 54 998.9
20260507172508 50 270 0.0 0.0 0.00 0.00 0.00 53 998.9
20260507172350 50 270 0.0 0.0 0.00 0.00 0.00 53 999.0
20260507172007 50 270 0.0 0.0 0.00 0.00 0.00 53 998.9
20260507171508 50 270 0.0 0.0 0.00 0.00 0.00 54 999.2
20260507171007 50 293 0.0 0.0 0.00 0.00 0.00 54 999.3
20260507170850 50 270 0.0 0.0 0.00 0.00 0.00 54 999.3
20260507170508 50 270 0.0 0.0 0.00 0.00 0.00 53 999.3
20260507170007 50 248 0.0 0.0 0.00 0.00 0.00 53 999.3
20260507165507 50 225 0.0 0.0 0.00 0.00 0.00 53 999.3
20260507165350 50 225 0.0 0.0 0.00 0.00 0.00 53 999.3
20260507165008 51 293 0.0 0.0 0.00 0.00 0.00 53 999.3
20260507163849 51 270 0.0 0.0 0.00 0.00 0.00 54 999.3
20260507163508 51 270 0.0 0.0 0.00 0.00 0.00 54 999.3
20260507162507 51 293 0.0 0.0 0.00 0.00 0.00 55 999.3
20260507162350 52 270 0.0 0.0 0.00 0.00 0.00 55 999.3
20260507162008 52 293 0.0 0.0 0.00 0.00 0.00 54 999.3
20260507161507 52 293 0.0 0.0 0.00 0.00 0.00 55 999.3
20260507161008 51 293 0.0 0.0 0.00 0.00 0.00 56 999.3
20260507160850 51 338 0.0 0.0 0.00 0.00 0.00 56 999.3
20260507155350 51 203 0.0 0.0 0.00 0.00 0.00 57 999.3
20260507155008 51 203 0.0 0.0 0.00 0.00 0.00 58 999.3
20260507154507 50 270 0.0 0.0 0.00 0.00 0.00 60 999.3
20260507153849 50 270 0.0 0.0 0.00 0.00 0.00 60 999.3
20260507153506 50 293 0.0 0.0 0.00 0.00 0.00 61 999.3
20260507153007 50 293 0.0 0.0 0.00 0.00 0.00 60 999.3
20260507152507 50 315 0.0 0.0 0.00 0.00 0.00 63 999.3
20260507152349 50 248 0.0 0.0 0.00 0.00 0.00 63 999.3
20260507152007 50 270 0.0 0.0 0.00 0.00 0.00 63 999.6